Weather History for KBAC - August, 2013

Change the Weather History Date:

Thursday, August 8, 2013

  Actual Average (KJMS) Record (KJMS)
Temperature  
Mean Temperature 62 °F 70 °F  
Max Temperature 71 °F 83 °F 104 °F (1958)
Min Temperature 53 °F 57 °F 39 °F (1923)
Degree Days  
Heating Degree Days 3 1  
Month to date heating degree days 7  
Since 1 June heating degree days 126  
Since 1 July heating degree days 29  
Cooling Degree Days 0 6  
Month to date cooling degree days 48  
Year to date cooling degree days 320  
Since 1 June cooling degree days 300  
Growing Degree Days 12 (Base 50)    
Moisture  
Dew Point 53 °F    
Average Humidity 76    
Maximum Humidity 100    
Minimum Humidity 46    
Precipitation  
Precipitation 0.00 in 0.07 in 0.61 in (2001)
Month to date precipitation 0.52  
Year to date precipitation 12.61  
Sea Level Pressure  
Sea Level Pressure 30.05 in    
Wind  
Wind Speed 6 mph (NNW)    
Max Wind Speed 15 mph    
Max Gust Speed 18 mph    
Visibility 10 miles    
Events Rain    
T = Trace of Precipitation, MM = Missing Value Source: NWS Daily Summary

Daily Weather History Graph

Daily Weather History Graph

Search for Another Location

Airport or City:

Trip Planner

Search our weather history database for the weather conditions in past years. The results will help you decide how hot, cold, wet, or windy it might be!

Date:

Astronomy

Aug. 08, 2013 Rise Set
Actual Time 6:20 AM CDT 8:53 PM CDT
Civil Twilight 5:46 AM CDT 9:27 PM CDT
Nautical Twilight 5:03 AM CDT 10:10 PM CDT
Astronomical Twilight 4:13 AM CDT 11:00 PM CDT
Moon 8:20 AM CDT (8/8) 9:19 PM CDT (8/8)
Length of Visible Light 15h 41m
Length of Day
14h 32m
Waxing Crescent, 3% of the Moon is Illuminated
Aug 8
Waxing Crescent
Aug 14
First Quarter
Aug 20
Full
Aug 28
Last Quarter
Sep 5
New

Hourly Weather History & Observations

Time (CDT) Temp. Dew Point Humidity Pressure Visibility Wind Dir Wind Speed Gust Speed Precip Events Conditions
12:15 AM 59.0 °F 59.0 °F 100% 30.03 in 10.0 mi ENE 6.9 mph - N/A   Overcast
12:35 AM 59.0 °F 57.2 °F 94% 30.04 in 10.0 mi NE 6.9 mph - N/A   Overcast
12:55 AM 59.0 °F 57.2 °F 94% 30.05 in 10.0 mi NE 5.8 mph - N/A   Overcast
1:15 AM 59.0 °F 57.2 °F 94% 30.05 in 10.0 mi NNE 5.8 mph - N/A   Overcast
1:35 AM 57.2 °F 57.2 °F 100% 30.06 in 10.0 mi Calm Calm - N/A Rain Light Rain
1:55 AM 57.2 °F 57.2 °F 100% 30.06 in 8.0 mi Calm Calm - N/A Rain Light Rain
2:15 AM 57.2 °F 57.2 °F 100% 30.05 in 10.0 mi North 6.9 mph - N/A Rain Light Rain
2:35 AM 57.2 °F 57.2 °F 100% 30.05 in 6.0 mi ENE 5.8 mph - N/A Rain Light Rain
2:55 AM 57.2 °F 57.2 °F 100% 30.04 in 10.0 mi NE 5.8 mph - N/A   Mostly Cloudy
3:15 AM 55.4 °F 55.4 °F 100% 30.04 in 10.0 mi NNE 3.5 mph - N/A   Overcast
3:35 AM 55.4 °F 55.4 °F 100% 30.03 in 10.0 mi ENE 3.5 mph - N/A   Overcast
3:55 AM 55.4 °F 55.4 °F 100% 30.03 in 10.0 mi Calm Calm - N/A   Overcast
4:15 AM 55.4 °F 55.4 °F 100% 30.03 in 10.0 mi East 4.6 mph - N/A   Overcast
4:35 AM 55.4 °F 55.4 °F 100% 30.03 in 10.0 mi ENE 4.6 mph - N/A   Overcast
4:55 AM 55.4 °F 55.4 °F 100% 30.02 in 10.0 mi ENE 3.5 mph - N/A   Overcast
5:15 AM 55.4 °F 55.4 °F 100% 30.02 in 10.0 mi NE 4.6 mph - N/A   Overcast
5:35 AM 55.4 °F 55.4 °F 100% 30.02 in 10.0 mi NNE 5.8 mph - N/A   Overcast
5:55 AM 55.4 °F 55.4 °F 100% 30.02 in 10.0 mi NNE 5.8 mph - N/A   Overcast
6:15 AM 55.4 °F 55.4 °F 100% 30.03 in 10.0 mi North 5.8 mph - N/A   Overcast
6:35 AM 53.6 °F 53.6 °F 100% 30.03 in 10.0 mi North 3.5 mph - N/A   Mostly Cloudy
6:55 AM 53.6 °F 53.6 °F 100% 30.04 in 10.0 mi Calm Calm - N/A   Scattered Clouds
7:15 AM 55.4 °F 55.4 °F 100% 30.04 in 10.0 mi Calm Calm - N/A   Scattered Clouds
7:35 AM 55.4 °F 55.4 °F 100% 30.05 in 10.0 mi NNE 3.5 mph - N/A   Clear
7:55 AM 55.4 °F 55.4 °F 100% 30.05 in 10.0 mi NNE 4.6 mph - N/A   Clear
8:15 AM 57.2 °F 57.2 °F 100% 30.06 in 10.0 mi Calm Calm - N/A   Clear
8:35 AM 57.2 °F 55.4 °F 94% 30.06 in 10.0 mi SE 3.5 mph - N/A   Clear
8:55 AM 59.0 °F 55.4 °F 88% 30.06 in 10.0 mi SE 5.8 mph - N/A   Scattered Clouds
9:15 AM 59.0 °F 55.4 °F 88% 30.06 in 10.0 mi SE 4.6 mph - N/A   Overcast
9:35 AM 59.0 °F 55.4 °F 88% 30.07 in 10.0 mi Calm Calm - N/A   Mostly Cloudy
9:55 AM 62.6 °F 53.6 °F 72% 30.07 in 10.0 mi Calm Calm - N/A   Clear
10:15 AM 64.4 °F 53.6 °F 68% 30.07 in 10.0 mi Calm Calm - N/A   Clear
10:35 AM 64.4 °F 48.2 °F 56% 30.08 in 10.0 mi Calm Calm - N/A   Clear
10:55 AM 64.4 °F 50.0 °F 59% 30.07 in 10.0 mi NE 3.5 mph - N/A   Clear
11:15 AM 66.2 °F 48.2 °F 52% 30.07 in 10.0 mi NNW 6.9 mph - N/A   Clear
11:35 AM 66.2 °F 50.0 °F 56% 30.08 in 10.0 mi NNE 4.6 mph - N/A   Clear
11:55 AM 66.2 °F 50.0 °F 56% 30.07 in 10.0 mi NW 6.9 mph - N/A   Clear
12:15 PM 68.0 °F 50.0 °F 52% 30.07 in 10.0 mi Calm Calm - N/A   Clear
12:35 PM 68.0 °F 50.0 °F 52% 30.06 in 10.0 mi NW 5.8 mph - N/A   Clear
12:55 PM 68.0 °F 48.2 °F 49% 30.06 in 10.0 mi Calm Calm - N/A   Clear
1:15 PM 69.8 °F 48.2 °F 46% 30.06 in 10.0 mi West 4.6 mph - N/A   Clear
1:35 PM 71.6 °F 50.0 °F 46% 30.06 in 10.0 mi NW 6.9 mph - N/A   Clear
1:55 PM 71.6 °F 50.0 °F 46% 30.05 in 10.0 mi North 5.8 mph 16.1 mph N/A   Partly Cloudy
2:15 PM 69.8 °F 50.0 °F 49% 30.05 in 10.0 mi NNW 10.4 mph - N/A   Mostly Cloudy
2:35 PM 69.8 °F 50.0 °F 49% 30.05 in 10.0 mi NNW 6.9 mph - N/A   Mostly Cloudy
2:55 PM 71.6 °F 50.0 °F 46% 30.05 in 10.0 mi WNW 6.9 mph - N/A   Scattered Clouds
3:15 PM 71.6 °F 50.0 °F 46% 30.05 in 10.0 mi NNW 6.9 mph - N/A   Scattered Clouds
3:35 PM 71.6 °F 50.0 °F 46% 30.05 in 10.0 mi West 10.4 mph - N/A   Mostly Cloudy
3:55 PM 71.6 °F 50.0 °F 46% 30.05 in 10.0 mi NNW 9.2 mph - N/A   Overcast
4:15 PM 71.6 °F 50.0 °F 46% 30.05 in 10.0 mi NW 9.2 mph - N/A   Overcast
4:35 PM 71.6 °F 50.0 °F 46% 30.04 in 10.0 mi NNW 12.7 mph 16.1 mph N/A   Overcast
4:55 PM 71.6 °F 50.0 °F 46% 30.04 in 10.0 mi NW 11.5 mph - N/A   Mostly Cloudy
5:15 PM 71.6 °F 50.0 °F 46% 30.04 in 10.0 mi NNW 13.8 mph - N/A   Mostly Cloudy
5:35 PM 71.6 °F 50.0 °F 46% 30.04 in 10.0 mi NNW 12.7 mph - N/A   Mostly Cloudy
5:55 PM 71.6 °F 51.8 °F 50% 30.04 in 10.0 mi NW 15.0 mph 18.4 mph N/A   Mostly Cloudy
6:15 PM 71.6 °F 50.0 °F 46% 30.03 in 10.0 mi NW 10.4 mph - N/A   Partly Cloudy
6:35 PM 71.6 °F 50.0 °F 46% 30.03 in 10.0 mi NW 12.7 mph 17.3 mph N/A   Clear
6:55 PM 71.6 °F 50.0 °F 46% 30.03 in 10.0 mi NNW 15.0 mph - N/A   Clear
7:15 PM 69.8 °F 50.0 °F 49% 30.03 in 10.0 mi NW 13.8 mph - N/A   Clear
7:35 PM 69.8 °F 50.0 °F 49% 30.03 in 10.0 mi NNW 11.5 mph - N/A   Partly Cloudy
7:55 PM 68.0 °F 51.8 °F 56% 30.03 in 10.0 mi NW 8.1 mph - N/A   Clear
8:15 PM 66.2 °F 53.6 °F 64% 30.03 in 10.0 mi NW 6.9 mph - N/A   Clear
8:35 PM 62.6 °F 53.6 °F 72% 30.03 in 10.0 mi NW 8.1 mph - N/A   Clear
8:55 PM 59.0 °F 55.4 °F 88% 30.04 in 10.0 mi WNW 6.9 mph - N/A   Clear
9:15 PM 59.0 °F 55.4 °F 88% 30.04 in 10.0 mi WNW 6.9 mph - N/A   Clear
9:35 PM 59.0 °F 55.4 °F 88% 30.05 in 10.0 mi NW 8.1 mph - N/A   Partly Cloudy
9:55 PM 57.2 °F 55.4 °F 94% 30.05 in 10.0 mi NW 9.2 mph - N/A   Clear
10:15 PM 57.2 °F 55.4 °F 94% 30.06 in 10.0 mi NW 8.1 mph - N/A   Clear
10:35 PM 57.2 °F 55.4 °F 94% 30.06 in 10.0 mi NW 8.1 mph - N/A   Partly Cloudy
10:55 PM 57.2 °F 55.4 °F 94% 30.07 in 10.0 mi NW 8.1 mph - N/A   Partly Cloudy
11:15 PM 55.4 °F 55.4 °F 100% 30.07 in 10.0 mi NW 8.1 mph - N/A   Scattered Clouds
11:35 PM 55.4 °F 55.4 °F 100% 30.07 in 10.0 mi NW 8.1 mph - N/A   Mostly Cloudy
11:55 PM 55.4 °F 55.4 °F 100% 30.08 in 10.0 mi NNW 6.9 mph - N/A   Mostly Cloudy